Simultaneous Nadir Overpasses (SNOs) Predictions

Prediction of SNOs between FY3D and TERRA Satellite Orbit:

Table of predicted SNOs for the next 14.0 days since TLE Epoch: 8/6/2022
Index Date (FY3D) Time (FY3D) Lat,Lon (FY3D) SZA (FY3D ) Date (TERRA) Time (TERRA) Lat,Lon (TERRA) SZA (TERRA ) Distance(km) Time Diff (sec)
1 08/08/2022 08:40:19 -71.88,-130.36 124.31 08/08/2022 08:41:03 -71.87,-130.29 124.32 2.91 44
2 08/08/2022 09:31:04 71.77, 37.16 55.59 08/08/2022 09:30:30 71.78, 37.19 55.60 1.43 34
3 08/11/2022 00:07:24 71.89, 177.89 56.47 08/11/2022 00:08:01 71.88, 177.97 56.46 2.66 37
4 08/11/2022 00:58:06 -71.77, -14.58 123.65 08/11/2022 00:57:31 -71.77, -14.59 123.65 0.65 35
5 08/13/2022 15:34:26 -71.88, 126.17 122.75 08/13/2022 15:35:02 -71.87, 126.17 122.76 0.90 36
6 08/13/2022 16:25:11 71.78, -66.34 57.16 08/13/2022 16:24:29 71.77, -66.36 57.15 1.90 42
7 08/16/2022 07:01:31 71.90, 74.39 58.10 08/16/2022 07:01:59 71.91, 74.48 58.10 3.35 28
8 08/16/2022 07:52:14 -71.82,-118.15 121.98 08/16/2022 07:51:29 -71.81,-118.07 121.99 3.13 45
9 08/18/2022 22:28:32 -71.88, 22.69 121.08 08/18/2022 22:28:59 -71.89, 22.67 121.07 1.49 27
10 08/18/2022 23:19:17 71.80,-169.85 58.85 08/18/2022 23:18:26 71.78,-169.88 58.83 2.20 51



Historial Predications of SNOs between FY3D and TERRA
